Overview Statistics Trail Chart Weather Telemetry Raw packets
 

This is the latest recevied weather packets stored in our database for station/object 4S6DRJ-13. If no packets are shown the sender has not sent any weather packets the latest 10 day(s).

<< 296 297 298 299 300 301 302 >>
Time Temp. Humidity Pressure Rain* Wind** Luminosity Snow
1788031590 27.78° C 85% 1010.1 hPa 0 mm 1.34 m/s, 221° 0 W/m² -
1788031530 27.78° C 85% 1010.3 hPa 0 mm 1.34 m/s, 203° 0 W/m² -
1788031468 27.78° C 85% 1010.1 hPa 0 mm 1.34 m/s, 182° 0 W/m² -
1788031407 27.78° C 85% 1010.1 hPa 0 mm 0.89 m/s, 139° 0 W/m² -
1788031346 27.78° C 85% 1010.2 hPa 0 mm 1.34 m/s, 270° 0 W/m² -
1788031285 27.78° C 85% 1010.2 hPa 0 mm 1.34 m/s, 210° 0 W/m² -
1788031224 27.78° C 85% 1010.2 hPa 0 mm 0.89 m/s, 235° 0 W/m² -
1788031163 27.78° C 85% 1010.2 hPa 0 mm 0.89 m/s, 269° 0 W/m² -
1788031102 27.78° C 85% 1010.2 hPa 0 mm 1.79 m/s, 223° 0 W/m² -
1788031041 27.78° C 85% 1010.1 hPa 0 mm 0.45 m/s, 301° 0 W/m² -
1788030980 27.78° C 85% 1010.4 hPa 0 mm 0.89 m/s, 55° 0 W/m² -
1788030919 27.78° C 84% 1010.2 hPa 0 mm 0.89 m/s, 178° 0 W/m² -
1788030858 27.78° C 84% 1010.3 hPa 0 mm 1.34 m/s, 211° 0 W/m² -
1788030797 27.78° C 84% 1010.3 hPa 0 mm 0 m/s 0 W/m² -
1788030735 27.78° C 84% 1010.3 hPa 0 mm 0.89 m/s, 225° 0 W/m² -
1788030675 27.78° C 84% 1010.4 hPa 0 mm 0.45 m/s, 204° 0 W/m² -
1788030614 27.78° C 84% 1010.3 hPa 0 mm 2.24 m/s, 170° 0 W/m² -
1788030552 27.78° C 84% 1010.3 hPa 0 mm 0.45 m/s, 295° 0 W/m² -
1788030492 27.78° C 84% 1010.3 hPa 0 mm 0.89 m/s, 290° 0 W/m² -
1788030431 27.78° C 84% 1010.6 hPa 0 mm 1.79 m/s, 259° 0 W/m² -
1788030369 27.78° C 84% 1010.2 hPa 0 mm 0.45 m/s, 277° 0 W/m² -
1788030309 27.78° C 84% 1010.5 hPa 0 mm 2.24 m/s, 291° 0 W/m² -
1788030248 27.78° C 85% 1010.5 hPa 0 mm 1.79 m/s, 351° 0 W/m² -
1788030187 27.78° C 85% 1010.4 hPa 0 mm 2.24 m/s, 194° 0 W/m² -
1788030126 27.78° C 85% 1010.5 hPa 0 mm 0.89 m/s, 224° 0 W/m² -

* Rain latest hour (hover to see other rain measurements)
** Current wind speed in m/s (hover to see current wind gust speed)